Wind_Speed
1 0 1 1 1 1 1 1 1 1 2 2 3 3 3 4 4 4 4 5 5 4 4 3 3 3 3 3 3 3 3 4 4 5 5 5 5 5 6 6 7 7 7 7 7 7 7 7 7
1 1 2 2 1 1 1 1 1 1 2 3 3 3 4 4 4 5 5 5 5 5 4 3 3 3 3 3 3 4 4 5 5 6 6 6 5 5 6 7 7 8 7 7 8 8 8 8 8
2 2 2 2 1 2 1 1 2 2 3 3 3 3 4 4 5 5 6 6 6 6 5 4 4 4 4 4 5 5 5 5 6 6 6 6 6 6 6 7 8 8 8 8 8 9 9 9 9
2 3 3 3 2 2 1 1 1 2 3 3 3 4 4 4 5 6 6 7 6 6 5 5 5 5 5 6 6 6 6 6 6 7 7 6 6 6 6 7 7 8 8 8 8 8 9 9 9
3 3 4 3 3 2 2 2 2 3 3 4 4 4 5 5 6 6 6 7 7 6 7 7 7 7 7 6 7 6 6 7 7 7 7 7 7 6 6 6 7 8 8 8 8 8 9 9 9
2 3 4 4 3 2 2 3 3 3 4 4 5 5 5 6 6 7 7 7 7 7 8 7 8 8 8 8 8 8 7 7 7 7 7 7 7 7 6 6 6 7 7 7 8 8 8 10 10
2 3 3 3 3 2 2 3 3 3 3 4 5 5 6 6 6 7 7 7 7 8 8 9 9 9 9 8 9 9 8 8 7 7 8 7 7 7 7 7 7 6 7 7 8 8 8 8 9
2 2 2 3 2 2 3 3 3 4 4 4 5 5 6 6 7 7 7 7 7 8 8 8 9 9 9 9 9 9 9 8 8 8 8 8 8 8 8 9 8 7 7 8 8 8 9 8 9
2 2 2 3 3 3 3 3 3 4 5 5 5 6 6 7 7 7 7 6 7 8 8 8 9 9 8 9 8 8 8 8 8 8 8 8 9 9 10 9 9 9 8 8 8 9 10 10 10
2 3 3 3 3 3 3 3 4 4 4 5 5 6 6 7 7 7 7 7 7 7 7 8 8 8 7 8 8 8 8 8 8 8 8 9 9 9 10 9 9 9 9 9 9 9 9 10 11
3 3 3 3 3 4 4 5 5 5 5 5 6 6 6 7 8 8 7 7 7 7 7 7 7 7 7 8 8 8 8 8 8 9 9 9 9 9 9 9 9 9 9 9 10 10 9 10 10
3 3 4 4 4 5 5 5 5 5 5 6 6 6 7 7 8 8 8 8 8 8 8 8 8 7 8 7 8 8 8 8 9 9 9 8 8 9 9 8 8 9 9 9 10 10 10 10 10
3 3 4 4 4 5 5 6 6 6 6 6 6 7 8 8 8 9 9 9 9 8 8 7 7 8 7 7 7 8 8 8 9 9 8 9 9 9 9 9 8 9 9 9 10 10 10 10 10
3 4 5 4 5 4 5 6 6 5 5 6 6 7 8 8 8 9 9 9 9 8 8 7 7 7 7 7 7 7 8 8 8 8 8 9 9 9 8 8 8 8 9 9 9 10 9 9 9
4 5 5 5 4 4 4 4 5 5 5 6 6 7 8 8 8 8 8 8 8 8 7 7 7 7 7 7 7 7 7 8 8 7 7 8 8 7 8 8 8 8 8 9 9 9 10 9 10
5 5 5 4 4 4 4 4 5 5 5 6 6 7 7 8 8 7 7 7 7 7 7 7 6 6 6 6 7 7 7 7 8 8 7 7 7 7 7 8 8 8 8 8 8 9 10 9 9
5 5 4 4 3 4 4 5 5 5 6 6 6 7 7 7 7 7 7 7 7 7 7 6 6 6 6 6 6 6 7 7 8 7 7 7 7 7 7 7 7 7 8 8 8 8 8 8 8
5 5 4 4 4 4 5 4 5 5 6 5 6 7 8 8 7 8 7 6 6 6 6 6 6 5 5 6 6 6 6 7 7 6 6 6 6 6 7 7 7 7 7 7 7 7 7 7 8
5 5 5 4 4 4 4 3 4 5 6 6 7 7 7 7 7 8 7 7 6 6 7 6 5 5 5 5 5 5 5 6 6 6 6 6 6 5 5 6 6 6 6 6 6 6 6 7 7
6 6 6 5 4 3 3 3 4 4 5 6 7 7 7 7 7 7 7 7 6 6 6 6 6 6 5 5 5 4 5 4 4 4 4 4 4 4 3 4 4 4 5 5 5 6 6 7 7
6 6 5 5 5 5 4 4 4 4 6 6 7 7 6 7 7 7 7 6 6 6 6 6 6 6 5 5 5 4 4 4 3 3 2 2 2 3 3 3 3 3 4 5 5 5 6 6 6
7 6 6 6 6 5 4 4 4 5 6 6 7 7 6 7 7 7 7 6 6 6 6 6 6 5 5 4 4 4 4 3 3 2 1 1 2 2 3 2 2 3 4 4 4 4 4 4 5
7 7 8 7 6 6 5 5 4 5 5 6 7 7 6 6 7 7 7 7 6 6 6 6 6 5 5 4 4 3 3 3 3 2 2 3 3 2 2 3 2 2 3 3 4 4 4 4 4
8 8 8 8 7 7 6 5 4 5 5 5 6 7 7 6 7 7 7 7 7 6 5 5 5 5 5 4 3 3 2 2 2 3 3 3 3 2 3 3 3 3 3 3 4 4 4 4 4
9 9 9 9 7 7 6 6 5 4 5 6 6 7 7 7 6 7 7 7 7 6 6 5 5 5 5 4 3 3 3 3 3 3 3 4 4 3 3 4 4 3 3 3 4 4 5 5 5
10 10 9 9 8 8 8 7 6 5 5 5 6 7 7 7 6 7 7 7 7 7 6 6 6 6 5 4 4 4 3 3 3 3 3 4 4 3 3 4 4 4 4 4 4 5 5 4 4
11 10 10 10 10 11 11 9 8 7 7 6 7 7 7 7 7 6 7 7 7 7 7 6 6 6 5 4 4 4 4 3 3 3 4 4 5 5 4 4 4 4 4 4 4 4 4 4 5
12 12 11 11 11 12 11 10 9 9 8 8 8 8 8 8 7 7 6 6 6 7 7 7 6 6 5 4 4 4 4 4 4 4 5 5 5 5 5 5 5 5 5 5 4 5 5 6 7
13 14 13 13 13 14 14 12 10 10 10 10 9 8 8 8 8 7 7 6 7 7 7 7 7 6 5 5 5 4 5 5 5 5 5 5 5 5 5 5 5 5 6 6 6 6 6 7 7
13 14 14 14 14 15 14 13 11 11 11 11 9 9 8 8 8 8 7 7 7 7 7 7 7 6 6 5 5 5 5 5 5 5 5 6 6 6 6 6 6 7 7 7 8 8 7 7 8
Wind_Direction
238 230 222 231 237 274 290 287 301 338 325 319 321 320 319 319 315 316 321 317 319 323 322 319 321 327 327 319 310 296 281 277 275 274 275 274 272 271 260 243 236 236 234 230 232 234 234 234 232
257 273 268 257 244 271 273 291 328 340 318 315 311 305 308 312 310 307 312 310 313 312 310 307 309 314 309 299 290 287 280 282 277 274 272 272 272 270 260 246 246 242 239 236 236 238 237 238 237
256 273 274 259 250 258 272 299 338 331 316 312 308 299 298 302 304 306 305 303 306 306 299 292 298 301 298 290 287 283 280 284 278 279 278 275 272 268 260 249 250 246 245 243 242 243 240 241 241
270 278 274 274 273 264 266 284 323 318 306 302 300 298 296 295 299 303 302 298 299 304 297 293 287 286 288 286 283 279 282 285 281 281 279 276 274 270 261 250 249 249 249 245 244 246 244 243 243
281 282 277 279 283 287 310 309 327 305 300 302 299 294 297 298 299 302 303 299 297 299 295 294 290 285 282 285 283 280 281 285 282 283 282 276 276 278 269 256 252 247 246 244 243 244 242 245 244
274 282 279 279 285 300 316 322 325 311 302 303 299 296 297 300 300 302 304 301 296 293 293 289 290 288 283 281 279 279 279 281 283 283 279 277 277 275 269 260 253 248 248 247 246 244 242 242 242
277 284 287 286 290 307 326 317 313 312 318 314 307 306 303 301 301 303 305 303 298 292 292 290 291 290 285 280 279 278 277 274 278 282 278 275 274 273 266 265 260 257 259 255 249 247 243 243 244
286 288 293 303 317 328 325 318 315 311 313 318 317 314 313 310 310 307 304 302 300 297 290 290 291 295 290 282 279 279 277 274 277 280 277 273 275 273 271 267 259 257 257 254 251 250 247 247 245
282 286 294 306 323 331 334 328 325 314 315 316 317 316 316 317 315 310 306 302 302 298 294 294 293 294 290 282 277 277 276 274 274 279 276 272 273 275 274 268 263 259 257 255 253 251 248 248 247
298 297 295 298 313 336 334 329 326 324 320 314 315 314 312 313 314 312 312 308 307 304 301 299 298 292 287 283 278 276 273 274 277 281 280 275 276 277 274 265 263 262 260 257 257 256 253 249 247
321 318 311 301 319 336 333 330 325 322 313 310 310 311 308 310 311 312 310 309 306 306 303 302 301 292 289 288 279 276 275 275 278 280 277 274 273 274 271 267 264 263 263 258 257 257 255 252 252
318 321 317 327 337 337 334 334 332 323 315 314 318 320 315 313 306 310 315 315 311 308 302 302 299 291 289 285 279 274 276 279 281 279 278 280 279 278 274 269 264 263 263 262 260 258 255 252 250
302 315 317 326 329 330 336 335 332 326 325 326 326 323 322 319 319 318 312 312 313 313 307 302 300 296 291 283 279 275 273 278 280 279 280 283 284 281 272 267 265 262 261 261 259 257 255 257 255
304 302 307 312 327 326 329 327 325 331 333 331 326 323 322 322 322 320 315 310 311 315 311 306 305 300 294 287 283 280 280 279 279 283 286 285 283 279 272 266 266 263 259 258 259 258 258 256 255
292 292 299 305 314 326 324 320 326 333 336 334 330 325 326 327 325 322 316 315 317 316 312 309 307 303 293 287 282 280 279 280 281 286 288 283 278 278 272 267 265 263 261 262 260 257 255 252 253
291 290 293 297 300 315 321 321 328 334 342 342 335 328 327 327 327 324 319 319 323 323 316 309 305 301 294 286 282 283 281 282 283 285 287 285 279 278 274 271 268 261 261 260 259 258 257 256 253
292 294 296 294 302 312 316 318 325 336 342 345 341 334 329 328 328 324 320 318 320 321 318 313 313 305 296 288 286 285 283 291 290 282 281 283 283 280 274 270 269 263 260 260 259 257 256 254 250
290 293 298 299 293 296 300 310 325 333 341 346 343 341 334 325 322 321 317 315 318 318 321 319 314 309 307 298 294 292 289 290 290 284 279 276 276 275 269 266 260 258 258 256 258 260 257 254 246
283 287 291 295 296 294 299 302 321 332 336 340 342 342 339 331 327 325 322 317 317 321 327 326 320 313 311 310 306 305 298 295 290 281 280 278 278 274 267 256 253 252 247 250 253 257 255 248 245
276 281 288 290 293 293 300 315 325 334 336 344 344 338 341 340 337 331 327 322 314 320 323 325 324 323 315 311 313 316 316 311 302 284 279 272 275 269 268 256 246 240 239 247 258 259 254 249 245
270 273 286 287 292 293 301 323 325 340 346 349 347 343 344 346 340 338 336 332 324 318 322 327 326 323 314 308 308 313 320 322 317 310 288 269 270 273 272 262 242 239 244 253 263 270 262 252 246
262 274 286 288 290 297 305 321 319 331 340 348 348 350 352 354 350 345 342 338 331 323 322 327 330 323 316 305 303 308 317 324 322 321 298 296 290 283 278 271 266 258 256 255 260 268 265 252 246
262 273 278 284 283 285 292 307 314 316 328 339 347 352 350 350 348 343 341 340 335 327 325 325 323 322 316 304 301 306 308 312 305 288 284 303 311 296 290 286 289 279 266 264 265 264 267 267 265
258 266 271 275 280 283 283 295 313 319 328 339 346 347 345 343 341 339 339 337 334 333 330 324 323 325 319 303 293 298 295 298 300 298 286 290 300 306 306 293 287 285 267 263 265 264 269 278 277
256 260 267 269 271 282 285 290 305 306 322 333 341 338 335 333 334 335 334 333 329 331 333 322 320 322 322 312 291 286 281 277 283 292 293 294 299 298 292 290 287 284 281 272 269 272 272 278 275
254 258 265 270 275 277 281 290 299 299 313 325 333 331 328 327 325 327 328 327 326 330 332 325 321 322 323 313 291 284 272 265 273 285 295 304 311 316 299 285 280 279 281 282 283 279 278 280 277
253 256 259 264 269 273 277 280 286 290 302 312 318 320 320 319 320 321 321 320 319 322 328 328 319 319 319 319 299 281 266 259 266 278 293 301 301 299 290 274 279 277 278 280 278 277 278 283 288
253 252 256 260 264 266 272 276 285 292 294 296 299 303 308 313 313 314 316 317 316 317 321 322 318 310 305 304 303 288 271 269 278 280 287 296 300 292 280 274 276 278 275 275 275 278 278 283 288
254 253 253 255 260 263 268 273 279 282 283 285 288 295 299 305 308 306 310 315 317 314 313 311 309 309 304 295 299 300 288 280 279 280 284 293 297 293 284 274 270 274 276 275 272 276 280 281 286
256 256 255 255 260 262 266 269 271 275 280 283 286 291 293 294 296 297 300 303 308 309 310 308 304 297 296 293 292 299 300 291 288 283 281 283 285 285 283 277 274 275 277 278 274 268 270 276 279
Height
5888 5887 5888 5889 5889 5888 5887 5887 5887 5887 5886 5886 5886 5886 5885 5885 5886 5887 5885 5882 5882 5881 5881 5880 5880 5880 5879 5879 5878 5878 5878 5877 5877 5877 5877 5876 5876 5875 5875 5875 5875 5875 5875 5875 5875 5875 5875 5875 5876
5887 5887 5888 5888 5888 5887 5887 5887 5886 5886 5886 5885 5885 5885 5885 5884 5884 5884 5882 5881 5881 5881 5880 5880 5879 5879 5879 5878 5878 5877 5877 5877 5876 5876 5875 5875 5875 5874 5874 5874 5874 5874 5874 5874 5874 5874 5874 5874 5875
5887 5887 5888 5888 5887 5887 5887 5886 5885 5885 5885 5885 5884 5884 5884 5884 5883 5882 5881 5880 5880 5880 5879 5879 5878 5878 5878 5877 5877 5876 5876 5875 5875 5874 5874 5874 5873 5873 5872 5872 5872 5872 5872 5872 5872 5873 5873 5873 5873
5887 5888 5888 5887 5886 5886 5886 5885 5885 5884 5884 5884 5884 5883 5883 5883 5882 5881 5880 5879 5879 5878 5878 5878 5877 5877 5876 5876 5876 5875 5875 5874 5874 5873 5873 5872 5872 5871 5871 5871 5871 5871 5871 5871 5871 5871 5871 5871 5872
5886 5887 5887 5886 5885 5885 5884 5884 5884 5884 5883 5883 5883 5882 5881 5881 5880 5880 5879 5878 5878 5877 5877 5876 5876 5875 5875 5874 5874 5874 5873 5873 5872 5872 5871 5871 5870 5870 5870 5869 5869 5869 5869 5869 5869 5869 5870 5869 5870
5886 5886 5886 5885 5885 5884 5884 5883 5883 5883 5882 5882 5881 5881 5880 5880 5879 5878 5877 5877 5876 5876 5875 5875 5874 5874 5873 5873 5872 5872 5872 5871 5871 5870 5870 5869 5869 5868 5868 5868 5868 5867 5867 5868 5868 5868 5868 5868 5868
5885 5885 5884 5884 5883 5883 5883 5882 5882 5882 5881 5881 5880 5879 5879 5878 5877 5876 5876 5875 5875 5874 5873 5873 5872 5872 5871 5871 5870 5870 5870 5869 5869 5868 5868 5868 5867 5867 5867 5867 5866 5866 5866 5866 5866 5866 5866 5866 5867
5884 5885 5883 5883 5882 5883 5882 5881 5881 5880 5880 5879 5879 5878 5878 5877 5876 5875 5874 5874 5873 5872 5872 5871 5870 5870 5869 5869 5868 5868 5868 5867 5867 5867 5866 5866 5865 5865 5865 5865 5864 5864 5864 5864 5864 5864 5864 5864 5865
5883 5884 5882 5882 5882 5882 5880 5880 5880 5879 5878 5878 5877 5877 5876 5875 5874 5873 5872 5872 5871 5871 5870 5869 5868 5868 5867 5867 5866 5866 5866 5866 5865 5865 5864 5864 5863 5863 5863 5862 5862 5862 5862 5862 5862 5862 5862 5862 5863
5883 5882 5882 5882 5881 5881 5879 5879 5879 5878 5877 5877 5876 5875 5874 5874 5873 5872 5871 5870 5870 5869 5868 5867 5866 5866 5865 5865 5864 5864 5864 5864 5863 5863 5862 5862 5862 5861 5861 5860 5860 5860 5860 5860 5860 5860 5860 5860 5860
5882 5881 5881 5880 5880 5879 5879 5878 5878 5877 5876 5876 5875 5874 5873 5872 5871 5870 5870 5869 5868 5867 5866 5866 5865 5864 5863 5863 5862 5862 5862 5862 5861 5861 5860 5860 5859 5859 5859 5858 5858 5858 5858 5858 5858 5858 5858 5858 5858
5881 5881 5880 5879 5879 5878 5878 5877 5877 5876 5875 5874 5873 5872 5871 5870 5869 5869 5868 5867 5866 5865 5864 5864 5863 5862 5861 5861 5860 5860 5860 5860 5859 5859 5858 5857 5857 5857 5857 5856 5856 5856 5856 5856 5856 5856 5856 5856 5856
5880 5880 5879 5878 5878 5877 5877 5876 5875 5875 5874 5873 5872 5871 5870 5869 5868 5867 5866 5865 5864 5863 5862 5862 5861 5860 5859 5859 5859 5858 5858 5858 5857 5857 5856 5855 5855 5855 5854 5854 5854 5854 5854 5854 5854 5854 5854 5854 5854
5879 5879 5878 5877 5877 5876 5876 5875 5874 5873 5872 5871 5870 5869 5869 5868 5866 5865 5864 5863 5862 5861 5860 5860 5859 5858 5858 5857 5857 5856 5856 5855 5855 5854 5854 5853 5853 5852 5852 5852 5852 5851 5852 5851 5851 5852 5852 5852 5852
5878 5878 5877 5876 5876 5875 5875 5874 5873 5872 5871 5870 5869 5868 5867 5866 5865 5864 5863 5862 5861 5859 5858 5858 5857 5857 5856 5855 5855 5854 5854 5853 5853 5852 5852 5851 5851 5850 5850 5850 5849 5849 5849 5849 5849 5849 5850 5850 5850
5877 5877 5876 5876 5874 5874 5875 5874 5873 5871 5870 5869 5868 5867 5866 5865 5864 5862 5861 5860 5859 5858 5857 5856 5855 5855 5854 5853 5853 5852 5852 5851 5851 5850 5850 5849 5848 5848 5848 5848 5847 5847 5847 5847 5847 5847 5847 5848 5848
5876 5875 5875 5875 5874 5873 5873 5872 5871 5870 5869 5868 5867 5866 5865 5863 5862 5861 5860 5859 5858 5857 5856 5855 5854 5853 5852 5852 5851 5850 5850 5849 5848 5848 5847 5847 5846 5846 5846 5846 5845 5845 5845 5845 5845 5845 5845 5846 5846
5875 5874 5874 5873 5873 5872 5872 5871 5870 5869 5868 5867 5866 5865 5863 5862 5861 5860 5858 5858 5856 5855 5854 5853 5853 5852 5851 5850 5850 5849 5848 5847 5846 5846 5845 5845 5844 5844 5844 5843 5843 5843 5843 5843 5843 5844 5844 5844 5844
5873 5873 5872 5872 5871 5871 5870 5870 5869 5868 5867 5866 5865 5863 5862 5861 5859 5858 5857 5856 5855 5854 5853 5852 5851 5850 5849 5849 5848 5847 5846 5845 5845 5844 5843 5843 5843 5842 5842 5842 5842 5842 5842 5842 5842 5842 5842 5842 5843
5872 5871 5871 5870 5869 5869 5869 5869 5868 5867 5866 5865 5864 5863 5861 5860 5858 5857 5856 5855 5854 5853 5852 5851 5850 5849 5848 5847 5846 5846 5845 5844 5843 5843 5842 5842 5841 5841 5840 5840 5840 5840 5840 5841 5841 5841 5841 5841 5841
5870 5870 5869 5869 5868 5868 5868 5868 5867 5866 5865 5864 5863 5862 5860 5859 5857 5856 5854 5853 5852 5852 5851 5850 5849 5848 5847 5846 5846 5845 5844 5843 5843 5842 5841 5841 5841 5840 5840 5839 5839 5839 5839 5840 5840 5839 5839 5839 5840
5868 5868 5867 5867 5867 5866 5867 5866 5866 5864 5864 5863 5862 5860 5859 5858 5856 5855 5853 5852 5851 5851 5850 5848 5848 5847 5846 5845 5845 5844 5844 5843 5843 5842 5841 5841 5840 5840 5840 5839 5839 5839 5839 5839 5839 5839 5838 5838 5838
5866 5865 5865 5865 5865 5865 5864 5865 5865 5863 5863 5862 5861 5859 5858 5857 5856 5854 5853 5852 5851 5850 5849 5848 5847 5846 5845 5845 5844 5843 5843 5842 5842 5842 5841 5841 5840 5840 5839 5839 5838 5838 5838 5838 5838 5838 5838 5837 5837
5863 5864 5863 5863 5863 5863 5863 5863 5863 5862 5861 5860 5859 5858 5857 5856 5855 5854 5852 5851 5850 5849 5848 5847 5846 5845 5845 5844 5843 5843 5842 5842 5841 5841 5841 5840 5840 5839 5839 5838 5838 5837 5837 5837 5837 5837 5837 5836 5836
5861 5862 5862 5861 5861 5861 5860 5860 5861 5860 5859 5859 5858 5857 5856 5855 5854 5853 5852 5851 5849 5848 5847 5846 5846 5845 5844 5843 5842 5842 5841 5841 5841 5840 5840 5840 5839 5838 5838 5838 5837 5837 5836 5836 5836 5836 5836 5835 5835
5859 5860 5860 5860 5859 5859 5858 5858 5859 5858 5857 5857 5856 5855 5854 5853 5853 5852 5851 5850 5849 5847 5846 5845 5845 5844 5843 5842 5841 5841 5840 5840 5840 5840 5839 5839 5838 5838 5837 5837 5836 5836 5836 5835 5835 5835 5834 5834 5834
5856 5856 5857 5857 5856 5856 5856 5856 5857 5856 5855 5855 5855 5854 5853 5852 5852 5850 5850 5849 5848 5846 5845 5844 5843 5842 5842 5841 5840 5840 5839 5839 5839 5839 5838 5838 5837 5837 5836 5836 5835 5835 5835 5834 5834 5834 5833 5833 5833
5853 5853 5854 5854 5853 5853 5853 5853 5854 5853 5853 5853 5853 5852 5851 5851 5850 5849 5848 5847 5846 5845 5844 5843 5842 5841 5841 5840 5840 5839 5838 5838 5838 5838 5837 5837 5836 5835 5835 5834 5834 5834 5833 5833 5833 5833 5832 5832 5831
5850 5850 5850 5850 5850 5850 5850 5853 5851 5851 5850 5850 5850 5850 5849 5849 5848 5847 5846 5846 5845 5844 5843 5842 5841 5840 5840 5839 5839 5838 5838 5837 5837 5836 5836 5836 5835 5834 5833 5833 5833 5832 5832 5832 5831 5831 5831 5830 5830
5845 5846 5846 5847 5847 5847 5847 5851 5848 5848 5847 5847 5847 5847 5847 5846 5846 5845 5844 5844 5843 5842 5841 5840 5840 5839 5838 5838 5837 5837 5836 5836 5835 5835 5834 5834 5833 5833 5832 5832 5831 5831 5830 5830 5829 5829 5829 5828 5828